Location: Home
(42.5358°N, 72.7383°W)
Time: 11:16:46
(UTC-05:00)

Vanguard 2 Rocket - Pass Details

Date: 03 December 2021
Orbit: 553 x 3325 km, 32.9° (Epoch: 23 January)

Event Time Altitude Azimuth Distance (km) Brightness Sun altitude
Rises 22:10:52 0° 269° (W) 4,524 10.8 -62.4°
Enters shadow 22:12:28 - 265° (W) 4,124 10.5 -62.6°
Reaches altitude 10° 22:13:37 10° 262° (W) 3,859 - -62.7°
Maximum altitude 22:23:28 41° 197° (SSW) 3,046 - -64.1°
Drops below altitude 10° 22:38:57 10° 136° (SE) 5,960 - -65.9°
Sets 22:44:32 0° 130° (SE) 7,191 - -66.5°
